Location: Oberkirch
(48.5323°N, 8.0787°E)
Time: 14:24:53
(UTC+00:00)

S-56A Canister/Altair - Pass Details

Date: 23 February 2026
Orbit: 633 x 2484 km, 38.9° (Epoch: 7 March)

Event Time Altitude Azimuth Distance (km) Brightness Sun altitude
Exits shadow 04:06:08 13° 208° (SSW) 3,681 10.6 -23.0°
Drops below altitude 10° 04:09:55 10° 189° (S) 4,230 11.1 -22.4°
Sets 04:16:27 0° 167° (SSE) 5,632 12.0 -21.3°
